Meteo Giornale » Osservazioni meteo Portogallo » Rpico Is Azores
ore: 02:30 - Osservazioni Meteo Rpico Is Azores
Lat. 38° 33' N Lon. 28° 26' W Alt. 33 metri s.l.m.
24 °C
Sereno
Temp. 24 Ore
22 °C
27 °C
Sud-Ovest
20.3 Km/h
Dew point 22 °C
Umidità 88 %
Visibilità 10 Km
Il sole sorge alle ore 07:23
Il sole tramonta alle ore 20:24
| Data e Ora | Cielo e Fenomeni | T °C | DP °C | Um. % | Pres. hPa | Vis. km | Vento km/h | |
|---|---|---|---|---|---|---|---|---|
| Oggi h: 02:30 | Sereno | 24 | 22 | 88 | 1022 | 10 | SO 20.3 | |
| Oggi h: 02:00 | Sereno | 24 | 22 | 88 | 1022 | 10 | SO 22.2 | |
| Oggi h: 01:30 | Sereno | 24 | 22 | 88 | 1023 | 10 | SO 24 | |
| Oggi h: 01:00 | Poco Nuvoloso | 24 | 22 | 88 | 1023 | 10 | SO 22.2 | |
| Oggi h: 00:30 | Nuvoloso | 24 | 22 | 88 | 1023 | 10 | SO 24 | |
| Oggi h: 00:00 | Nuvoloso | 24 | 22 | 88 | 1023 | 10 | SO 25.9 | |
| Ieri h: 23:30 | Poco Nuvoloso | 24 | 22 | 88 | 1023 | 10 | SO 24 | |
| Ieri h: 23:00 | Sereno | 24 | 22 | 88 | 1023 | 10 | SO 22.2 | |
| Ieri h: 22:30 | Sereno | 24 | 22 | 88 | 1023 | 10 | SO 22.2 | |
| Ieri h: 22:00 | Sereno | 24 | 22 | 88 | 1022 | 10 | SO 22.2 | |
| Ieri h: 21:30 | Sereno | 24 | 22 | 88 | 1022 | 10 | SO 22.2 | |
| Ieri h: 21:00 | Sereno | 24 | 22 | 88 | 1022 | 10 | SO 22.2 | |
| Ieri h: 20:30 | Poco Nuvoloso | 25 | 22 | 83 | 1022 | 10 | SO 22.2 | |
| Ieri h: 20:00 | Poco Nuvoloso | 25 | 22 | 83 | 1022 | 10 | O/SO 24 | |
| Ieri h: 19:30 | Poco Nuvoloso | 26 | 22 | 78 | 1022 | 10 | O/SO 25.9 | |
| Ieri h: 19:00 | Poco Nuvoloso | 26 | 22 | 78 | 1021 | 10 | SO 27.8 | |
| Ieri h: 18:30 | Poco Nuvoloso | 26 | 22 | 78 | 1022 | 10 | O/SO 25.9 | |
| Ieri h: 18:00 | Poco Nuvoloso | 27 | 21 | 69 | 1021 | 10 | O/SO 27.8 | |
| Ieri h: 17:30 | Pioggia nelle vicinanze | 26 | 22 | 78 | 1022 | 10 | O/SO 31.5 | |
| Ieri h: 17:00 | Nuvoloso | 26 | 22 | 78 | 1022 | 10 | O/SO 27.8 | |
| Ieri h: 16:30 | Poco Nuvoloso | 27 | 22 | 74 | 1021 | 10 | SO 29.6 | |
| Ieri h: 16:00 | Poco Nuvoloso | 27 | 21 | 69 | 1021 | 10 | SO 31.5 | |
| Ieri h: 15:30 | Poco Nuvoloso | 27 | 21 | 69 | 1022 | 10 | SO 31.5 | |
| Ieri h: 15:00 | Poco Nuvoloso | 27 | 21 | 69 | 1022 | 10 | SO 27.8 | |
| Ieri h: 14:30 | Poco Nuvoloso | 27 | 20 | 65 | 1022 | 10 | SO 27.8 | |
| Ieri h: 14:00 | Poco Nuvoloso | 27 | 20 | 65 | 1022 | 10 | SO 27.8 | |
| Ieri h: 13:30 | Poco Nuvoloso | 27 | 20 | 65 | 1022 | 10 | SO 25.9 | |
| Ieri h: 13:00 | Poco Nuvoloso | 27 | 20 | 65 | 1022 | 10 | SO 24 | |
| Ieri h: 12:30 | Poco Nuvoloso | 26 | 20 | 69 | 1022 | 10 | SO 24 | |
| Ieri h: 12:00 | Poco Nuvoloso | 26 | 20 | 69 | 1022 | 10 | SO 25.9 | |
| Ieri h: 11:30 | Poco Nuvoloso | 26 | 20 | 69 | 1022 | 10 | SO 22.2 | |
| Ieri h: 11:00 | Poco Nuvoloso | 25 | 20 | 73 | 1022 | 10 | SO 22.2 | |
| Ieri h: 10:30 | Poco Nuvoloso | 25 | 20 | 73 | 1022 | 10 | SO 24 | |
| Ieri h: 10:00 | Poco Nuvoloso | 25 | 20 | 73 | 1022 | 10 | SO 24 | |
| Ieri h: 09:30 | Poco Nuvoloso | 24 | 20 | 78 | 1022 | 10 | SO 22.2 | |
| Ieri h: 09:00 | Poco Nuvoloso | 24 | 21 | 83 | 1022 | 10 | SO 18.5 | |
| Ieri h: 08:30 | Poco Nuvoloso | 23 | 20 | 83 | 1021 | 10 | SO 22.2 | |
| Ieri h: 08:00 | Poco Nuvoloso | 23 | 20 | 83 | 1021 | 10 | SO 18.5 | |
| Ieri h: 07:30 | Poco Nuvoloso | 23 | 20 | 83 | 1021 | 10 | SO 18.5 | |
| Ieri h: 07:00 | Poco Nuvoloso | 22 | 20 | 88 | 1021 | 10 | SO 16.7 | |
| Ieri h: 06:30 | Poco Nuvoloso | 23 | 20 | 83 | 1021 | 10 | SO 20.3 | |
| Ieri h: 06:00 | Poco Nuvoloso | 23 | 20 | 83 | 1021 | 10 | SO 22.2 | |
| Ieri h: 05:30 | Poco Nuvoloso | 23 | 21 | 88 | 1021 | 10 | SO 20.3 | |
| Ieri h: 05:00 | Sereno | 23 | 21 | 88 | 1021 | 10 | O/SO 22.2 | |
| Ieri h: 04:30 | Sereno | 23 | 21 | 88 | 1021 | 10 | O/SO 22.2 | |
| Ieri h: 04:00 | Poco Nuvoloso | 23 | 21 | 88 | 1021 | 10 | SO 22.2 | |
| Ieri h: 03:30 | Sereno | 23 | 20 | 83 | 1021 | 10 | O/SO 20.3 | |
| Ieri h: 03:00 | Sereno | 23 | 20 | 83 | 1021 | 10 | O/SO 22.2 | |



